DW6471 Weather Reports


Display with metric or nautical units.
time (UTC)temp
F
wind
direction
speed
MPH
gust
MPH
rain 1hr
in
rain 24hr
in
rain mn
in
humidity
%
barometer
mb
20260506062225 68 142 0.0 1.0 0.00 0.00 0.00 91 1013.1
20260506061724 68 146 0.0 1.0 0.00 0.00 0.00 91 1013.1
20260506061224 68 146 0.0 1.0 0.00 0.00 0.00 91 1013.2
20260506060723 68 101 0.0 2.0 0.00 0.00 0.00 90 1013.1
20260506060224 68 131 0.0 2.0 0.00 0.00 0.00 90 1013.1
20260506051218 68 172 0.0 1.0 0.00 0.00 0.00 91 1013.7
20260506050717 68 158 0.0 1.0 0.00 0.00 0.00 91 1013.7
20260506050218 68 158 0.0 1.0 0.00 0.00 0.00 90 1013.7
20260506044715 68 157 0.0 1.0 0.00 0.00 0.00 90 1013.8
20260506044216 68 157 0.0 1.0 0.00 0.00 0.00 90 1013.8
20260506043716 68 158 0.0 2.0 0.00 0.00 0.00 90 1013.9
20260506043216 68 162 0.0 2.0 0.00 0.00 0.00 90 1013.9
20260506042716 68 151 0.0 3.0 0.00 0.00 0.00 90 1013.9
20260506042215 68 151 0.0 3.0 0.00 0.00 0.00 90 1013.9
20260506041713 68 135 0.0 1.0 0.00 0.00 0.00 89 1014.0
20260506041214 69 135 0.0 1.0 0.00 0.00 0.00 90 1014.0
20260506040946 69 135 0.0 1.0 0.00 0.00 0.00 89 1014.0
20260506040214 69 135 0.0 2.0 0.00 0.00 0.00 89 1014.1
20260506035713 69 135 0.0 2.0 0.00 0.00 0.00 89 1014.1
20260506035213 69 131 0.0 1.0 0.00 0.00 0.00 89 1014.1
20260506034714 69 131 0.0 1.0 0.00 0.00 0.00 89 1014.2
20260506034213 69 131 0.0 1.0 0.00 0.00 0.00 89 1014.2
20260506033713 69 131 0.0 1.0 0.00 0.00 0.00 89 1014.3
20260506033212 69 131 0.0 1.0 0.00 0.00 0.00 88 1014.3
20260506032711 69 131 0.0 1.0 0.00 0.00 0.00 88 1014.4
20260506032442 69 131 0.0 1.0 0.00 0.00 0.00 88 1014.4
20260506031712 69 131 0.0 1.0 0.00 0.00 0.00 88 1014.4
20260506031212 69 129 0.0 1.0 0.00 0.00 0.00 87 1014.4
20260506030712 69 129 0.0 1.0 0.00 0.00 0.00 87 1014.3
20260506030211 69 129 0.0 1.0 0.00 0.00 0.00 87 1014.1
20260506025712 69 129 0.0 1.0 0.00 0.00 0.00 87 1014.1
20260506025212 69 128 0.0 1.0 0.00 0.00 0.00 86 1014.2
20260506024711 69 128 0.0 1.0 0.00 0.00 0.00 86 1014.2
20260506024212 69 129 0.0 1.0 0.00 0.00 0.00 86 1014.1
20260506023712 69 129 0.0 1.0 0.00 0.00 0.00 86 1014.1
20260506023212 70 129 0.0 1.0 0.00 0.00 0.00 86 1014.1
20260506022712 70 129 0.0 1.0 0.00 0.00 0.00 85 1014.0
20260506022211 70 129 0.0 1.0 0.00 0.00 0.00 85 1014.0
20260506021712 70 128 0.0 1.0 0.00 0.00 0.00 85 1014.0
20260506021209 70 129 0.0 1.0 0.00 0.00 0.00 84 1013.9
20260506020938 70 129 0.0 2.0 0.00 0.00 0.00 84 1013.9
20260506020438 71 129 0.0 2.0 0.00 0.00 0.00 84 1013.9
20260506015707 71 198 0.0 0.0 0.00 0.00 0.00 83 1013.9
20260506015208 71 198 0.0 2.0 0.00 0.00 0.00 83 1013.9
20260506014707 71 198 1.0 4.0 0.00 0.00 0.00 83 1013.9
20260506014212 71 108 1.0 2.0 0.00 0.00 0.00 82 1013.7
20260506014208 71 210 1.0 4.0 0.00 0.00 0.00 83 1013.9
20260506013208 71 221 1.0 2.0 0.00 0.00 0.00 82 1013.8
20260506012708 71 209 0.0 2.0 0.00 0.00 0.00 81 1013.7
20260506012206 72 147 0.0 2.0 0.00 0.00 0.00 81 1013.6
20260506011703 72 201 0.0 3.0 0.00 0.00 0.00 80 1013.7
20260506011204 72 169 0.0 3.0 0.00 0.00 0.00 80 1013.7
20260506010703 72 202 1.0 3.0 0.00 0.00 0.00 80 1013.6
20260506010202 72 190 1.0 2.0 0.00 0.00 0.00 79 1013.7
20260506005702 72 211 0.0 2.0 0.00 0.00 0.00 79 1013.7
20260506005201 73 204 0.0 2.0 0.00 0.00 0.00 78 1013.7
20260506004933 73 87 1.0 2.0 0.00 0.00 0.00 78 1013.6
20260506004200 73 208 1.0 4.0 0.00 0.00 0.00 77 1013.6
20260506003700 73 229 1.0 4.0 0.00 0.00 0.00 77 1013.5
20260506003159 73 205 1.0 2.0 0.00 0.00 0.00 76 1013.5
20260506002658 73 203 1.0 5.0 0.00 0.00 0.00 76 1013.5
20260506002157 74 211 1.0 6.0 0.00 0.00 0.00 75 1013.3
20260506001658 74 155 1.0 6.0 0.00 0.00 0.00 74 1013.4
20260506001158 74 212 1.0 4.0 0.00 0.00 0.00 74 1013.4
20260506000655 74 180 1.0 5.0 0.00 0.00 0.00 73 1013.3
20260506000156 74 167 1.0 5.0 0.00 0.00 0.00 73 1013.3
20260505235927 75 274 1.0 3.0 0.00 0.00 0.00 72 1013.4
20260505235154 75 221 1.0 4.0 0.00 0.00 0.00 71 1013.4
20260505234654 75 236 1.0 4.0 0.00 0.00 0.00 71 1013.5
20260505234154 75 205 1.0 9.0 0.00 0.00 0.00 70 1013.4
20260505233654 76 206 1.0 9.0 0.00 0.00 0.00 69 1013.5
20260505233155 76 212 1.0 4.0 0.00 0.00 0.00 68 1013.6
20260505233151 76 252 1.0 4.0 0.00 0.00 0.00 69 1013.6
20260505232149 76 203 1.0 4.0 0.00 0.00 0.00 67 1013.6
20260505231650 77 213 1.0 9.0 0.00 0.00 0.00 67 1013.5
20260505231421 77 205 2.0 9.0 0.00 0.00 0.00 66 1013.5
20260505230649 77 205 2.0 6.0 0.00 0.00 0.00 65 1013.5
20260505230148 78 209 1.0 6.0 0.00 0.00 0.00 64 1013.6
20260505225648 78 198 1.0 6.0 0.00 0.00 0.00 64 1013.6
20260505225146 78 228 1.0 6.0 0.00 0.00 0.00 63 1013.5
20260505224645 79 181 2.0 6.0 0.00 0.00 0.00 62 1013.5
20260505224144 79 205 1.0 6.0 0.00 0.00 0.00 62 1013.5
20260505223644 79 224 1.0 5.0 0.00 0.00 0.00 62 1013.5
20260505223144 78 179 1.0 5.0 0.00 0.00 0.00 64 1013.5
20260505222641 78 185 1.0 7.0 0.00 0.00 0.00 64 1013.5
20260505222142 78 221 2.0 7.0 0.00 0.00 0.00 63 1013.5
20260505221641 79 98 2.0 10.0 0.00 0.00 0.00 63 1013.4
20260505221139 79 233 2.0 10.0 0.00 0.00 0.00 61 1013.4
20260505220640 80 228 2.0 6.0 0.00 0.00 0.00 59 1013.3
20260505220137 80 127 2.0 5.0 0.00 0.00 0.00 61 1013.2
20260505215637 80 134 2.0 14.0 0.00 0.00 0.00 61 1013.3
20260505215138 80 186 3.0 14.0 0.00 0.00 0.00 60 1013.2
20260505214636 80 202 3.0 9.0 0.00 0.00 0.00 59 1013.1
20260505214135 81 212 2.0 8.0 0.00 0.00 0.00 59 1013.1
20260505213634 81 164 2.0 8.0 0.00 0.00 0.00 59 1013.2
20260505213134 80 134 2.0 8.0 0.00 0.00 0.00 59 1013.1
20260505212633 80 216 2.0 6.0 0.00 0.00 0.00 59 1013.1
20260505212134 80 213 2.0 6.0 0.00 0.00 0.00 57 1013.2
20260505211906 80 190 2.0 6.0 0.00 0.00 0.00 58 1013.2
20260505211134 81 212 2.0 6.0 0.00 0.00 0.00 58 1013.2
20260505210633 81 128 2.0 8.0 0.00 0.00 0.00 59 1013.3
20260505210138 81 198 2.0 6.0 0.00 0.00 0.00 56 1013.3
20260505210134 81 219 2.0 8.0 0.00 0.00 0.00 56 1013.3
20260505205134 81 107 3.0 8.0 0.00 0.00 0.00 57 1013.4
20260505204633 81 203 2.0 8.0 0.00 0.00 0.00 56 1013.4
20260505204404 81 231 2.0 9.0 0.00 0.00 0.00 58 1013.4
20260505203904 81 162 3.0 9.0 0.00 0.00 0.00 56 1013.5
20260505203134 82 215 2.0 7.0 0.00 0.00 0.00 54 1013.6
20260505202633 82 205 2.0 7.0 0.00 0.00 0.00 55 1013.6
20260505202133 82 223 2.0 6.0 0.00 0.00 0.00 55 1013.6
20260505201904 82 110 2.0 8.0 0.00 0.00 0.00 55 1013.6
20260505201133 82 202 2.0 10.0 0.00 0.00 0.00 53 1013.8
20260505200904 82 200 3.0 10.0 0.00 0.00 0.00 56 1013.8
20260505200133 82 217 3.0 8.0 0.00 0.00 0.00 56 1013.8
20260505195634 82 211 3.0 8.0 0.00 0.00 0.00 55 1013.8
20260505195132 82 243 3.0 11.0 0.00 0.00 0.00 56 1013.8
20260505194632 82 338 4.0 11.0 0.00 0.00 0.00 55 1014.0
20260505194131 81 226 3.0 10.0 0.00 0.00 0.00 57 1014.0
20260505193632 81 283 3.0 9.0 0.00 0.00 0.00 57 1014.1
20260505193132 82 329 2.0 9.0 0.00 0.00 0.00 55 1014.1
20260505192632 82 301 2.0 7.0 0.00 0.00 0.00 57 1014.1
20260505192132 81 205 3.0 8.0 0.00 0.00 0.00 55 1014.1
20260505191903 82 242 3.0 8.0 0.00 0.00 0.00 53 1014.1
20260505191132 83 217 2.0 7.0 0.00 0.00 0.00 53 1014.0
20260505190632 82 224 2.0 7.0 0.00 0.00 0.00 54 1014.1
20260505190131 83 225 2.0 7.0 0.00 0.00 0.00 53 1014.0
20260505185632 83 191 2.0 9.0 0.00 0.00 0.00 51 1014.1
20260505185132 83 21 2.0 9.0 0.00 0.00 0.00 51 1014.2
20260505184631 83 195 3.0 7.0 0.00 0.00 0.00 50 1014.3
20260505184132 83 314 2.0 7.0 0.00 0.00 0.00 51 1014.3
20260505183632 83 214 2.0 7.0 0.00 0.00 0.00 53 1014.4
20260505183131 83 239 3.0 10.0 0.00 0.00 0.00 53 1014.4
20260505182631 82 353 3.0 11.0 0.00 0.00 0.00 50 1014.5
20260505182402 82 219 3.0 11.0 0.00 0.00 0.00 53 1014.4
20260505181631 82 284 3.0 9.0 0.00 0.00 0.00 50 1014.6
20260505181131 82 225 2.0 7.0 0.00 0.00 0.00 55 1014.6
20260505180632 82 223 2.0 5.0 0.00 0.00 0.00 54 1014.6
20260505180131 82 127 3.0 8.0 0.00 0.00 0.00 54 1014.6
20260505175632 82 212 4.0 8.0 0.00 0.00 0.00 54 1014.7
20260505175131 82 198 3.0 8.0 0.00 0.00 0.00 53 1014.7
20260505174903 81 240 1.0 8.0 0.00 0.00 0.00 56 1014.8
20260505174130 82 205 2.0 7.0 0.00 0.00 0.00 54 1014.8
20260505173901 81 349 3.0 7.0 0.00 0.00 0.00 56 1014.7
20260505173130 82 211 2.0 7.0 0.00 0.00 0.00 53 1014.8
20260505172629 82 191 2.0 7.0 0.00 0.00 0.00 56 1014.7
20260505172130 82 98 2.0 7.0 0.00 0.00 0.00 55 1014.8
20260505171629 82 285 2.0 7.0 0.00 0.00 0.00 54 1014.8
20260505171130 81 205 2.0 7.0 0.00 0.00 0.00 55 1014.8
20260505170901 81 131 3.0 8.0 0.00 0.00 0.00 54 1014.9
20260505170130 81 203 3.0 8.0 0.00 0.00 0.00 54 1014.8
20260505165630 81 257 2.0 8.0 0.00 0.00 0.00 55 1014.7
20260505165134 81 204 2.0 9.0 0.00 0.00 0.00 55 1014.9
20260505165130 80 146 3.0 9.0 0.00 0.00 0.00 55 1014.8
20260505164130 80 223 2.0 6.0 0.00 0.00 0.00 56 1014.8
20260505163630 80 251 2.0 6.0 0.00 0.00 0.00 55 1014.9
20260505163130 80 116 2.0 4.0 0.00 0.00 0.00 56 1015.0
20260505162630 80 321 2.0 9.0 0.00 0.00 0.00 55 1014.8
20260505162130 80 212 2.0 9.0 0.00 0.00 0.00 55 1014.6
20260505161629 80 122 2.0 7.0 0.00 0.00 0.00 56 1014.7
20260505161130 80 184 3.0 8.0 0.00 0.00 0.00 55 1014.8
20260505160629 80 77 3.0 8.0 0.00 0.00 0.00 54 1014.8
20260505160130 80 47 3.0 8.0 0.00 0.00 0.00 54 1014.8
20260505153129 79 224 3.0 7.0 0.00 0.00 0.00 55 1015.0
20260505152630 78 228 3.0 8.0 0.00 0.00 0.00 56 1015.0
20260505152129 78 207 2.0 8.0 0.00 0.00 0.00 56 1014.8
20260505151630 78 153 2.0 6.0 0.00 0.00 0.00 58 1014.8
20260505151401 78 212 2.0 11.0 0.00 0.00 0.00 57 1014.7
20260505150901 78 235 2.0 11.0 0.00 0.00 0.00 57 1014.7
20260505150130 78 198 2.0 7.0 0.00 0.00 0.00 56 1014.6
20260505140622 74 180 2.0 6.0 0.00 0.00 0.00 63 1014.7
20260505140122 74 210 1.0 6.0 0.00 0.00 0.00 64 1014.7
20260505130113 66 178 1.0 4.0 0.00 0.00 0.00 77 1014.5
20260505124612 64 186 1.0 2.0 0.00 0.00 0.00 82 1014.6
20260505124111 63 186 0.0 2.0 0.00 0.00 0.00 84 1014.7
20260505123611 62 186 0.0 1.0 0.00 0.00 0.00 86 1014.6
20260505123111 61 186 0.0 1.0 0.00 0.00 0.00 87 1014.6
20260505122609 60 186 0.0 1.0 0.00 0.00 0.00 89 1014.5
20260505122108 59 186 0.0 1.0 0.00 0.00 0.00 90 1014.3
20260505121605 58 186 0.0 1.0 0.00 0.00 0.00 92 1014.4
20260505121336 57 186 0.0 1.0 0.00 0.00 0.00 93 1014.3
20260505120606 56 207 0.0 1.0 0.00 0.00 0.00 94 1014.3
20260505120105 0 0.0 0.0 0.00 0.00 0.00 1014.2
20260505115512 0 0.0 0.0 0.00 0.00 0.00 1014.3
20260505114915 0 0.0 0.0 0.00 0.00 0.00 1014.2
20260505114415 0 0.0 0.0 0.00 0.00 0.00 1014.1
20260505113912 0 0.0 0.0 0.00 0.00 0.00 1014.0
20260505113542 0 0.0 0.0 0.00 0.00 0.00 1013.9
20260505113039 0 0.0 0.0 0.00 0.00 0.00 1013.9
20260505112214 0 0.0 0.0 0.00 0.00 0.00 1013.8
20260505111713 0 0.0 0.0 0.00 0.00 0.00 1013.7
20260505111214 0 0.0 0.0 0.00 0.00 0.00 1013.7
20260505110705 0 0.0 1.0 0.00 0.00 0.00 1013.7
20260505110114 0 202 0.0 1.0 0.00 0.00 0.00 1013.7
20260505102035 53 207 0.0 0.0 0.00 0.00 0.00 94 1013.7
20260505101805 52 207 0.0 0.0 0.00 0.00 0.00 94 1013.7
20260505101307 52 207 0.0 0.0 0.00 0.00 0.00 94 1013.7
20260505100535 52 207 0.0 0.0 0.00 0.00 0.00 94 1013.7
20260505100036 52 207 0.0 0.0 0.00 0.00 0.00 94 1013.7
20260505095535 52 207 0.0 0.0 0.00 0.00 0.00 94 1013.7
20260505095036 52 207 0.0 0.0 0.00 0.00 0.00 94 1013.7
20260505094535 52 207 0.0 0.0 0.00 0.00 0.00 94 1013.6
20260505094036 52 207 0.0 0.0 0.00 0.00 0.00 94 1013.5
20260505093534 52 207 0.0 0.0 0.00 0.00 0.00 93 1013.6
20260505093035 52 207 0.0 0.0 0.00 0.00 0.00 93 1013.7
20260505092807 52 207 0.0 0.0 0.00 0.00 0.00 93 1013.8
20260505092033 52 207 0.0 0.0 0.00 0.00 0.00 93 1013.7
20260505091534 52 207 0.0 0.0 0.00 0.00 0.00 93 1013.5
20260505091033 52 207 0.0 0.0 0.00 0.00 0.00 93 1013.6
20260505090804 52 207 0.0 0.0 0.00 0.00 0.00 93 1013.6
20260505090034 52 207 0.0 0.0 0.00 0.00 0.00 93 1013.5
20260505085533 52 207 0.0 0.0 0.00 0.00 0.00 93 1013.5
20260505085304 52 207 0.0 0.0 0.00 0.00 0.00 93 1013.5
20260505084531 52 207 0.0 0.0 0.00 0.00 0.00 93 1013.5
20260505084032 52 207 0.0 0.0 0.00 0.00 0.00 93 1013.4
20260505083531 52 207 0.0 0.0 0.00 0.00 0.00 93 1013.3
20260505083301 52 207 0.0 0.0 0.00 0.00 0.00 93 1013.3
20260505082759 52 207 0.0 0.0 0.00 0.00 0.00 93 1013.3
20260505082029 52 207 0.0 0.0 0.00 0.00 0.00 93 1013.3
20260505081529 52 207 0.0 0.0 0.00 0.00 0.00 93 1013.3
20260505081029 52 207 0.0 0.0 0.00 0.00 0.00 93 1013.3
20260505080801 52 207 0.0 0.0 0.00 0.00 0.00 93 1013.4
20260505080030 52 207 0.0 0.0 0.00 0.00 0.00 93 1013.4
20260505075529 52 207 0.0 0.0 0.00 0.00 0.00 93 1013.5
20260505075029 52 207 0.0 0.0 0.00 0.00 0.00 93 1013.5
20260505074530 52 207 0.0 0.0 0.00 0.00 0.00 93 1013.5
20260505074029 53 207 0.0 0.0 0.00 0.00 0.00 93 1013.6
20260505073534 53 207 0.0 0.0 0.00 0.00 0.00 93 1013.7
20260505073530 52 207 0.0 0.0 0.00 0.00 0.00 93 1013.6
20260505072801 53 207 0.0 0.0 0.00 0.00 0.00 93 1013.6
20260505072029 53 207 0.0 0.0 0.00 0.00 0.00 93 1013.5
20260505071530 53 207 0.0 0.0 0.00 0.00 0.00 93 1013.6
20260505071029 53 207 0.0 0.0 0.00 0.00 0.00 92 1013.6
20260505070530 53 207 0.0 0.0 0.00 0.00 0.00 92 1013.6
20260505070259 53 207 0.0 0.0 0.00 0.00 0.00 92 1013.8
20260505065527 53 207 0.0 0.0 0.00 0.00 0.00 92 1013.9
20260505065028 53 207 0.0 0.0 0.00 0.00 0.00 92 1013.9
20260505064527 53 207 0.0 0.0 0.00 0.00 0.00 92 1013.9